Ottumwa, IA

1:49 AM CDT on May 27, 2017 (GMT -0500)
Ottumwa Industrial

Weather History for KOTM - April, 2012

Change the Weather History Date:

Monday, April 2, 2012

  Actual Average Record
Temperature  
Mean Temperature 69 °F 46 °F  
Max Temperature 85 °F 57 °F 86 °F (1940)
Min Temperature 52 °F 35 °F 13 °F (1899)
Degree Days  
Heating Degree Days 0 19  
Month to date heating degree days 0 39  
Since 1 July heating degree days 4601 5735  
Cooling Degree Days 4 0  
Month to date cooling degree days 10 0  
Year to date cooling degree days 42 1  
Growing Degree Days 18 (Base 50)    
Moisture  
Dew Point 57 °F    
Average Humidity 72    
Maximum Humidity 96    
Minimum Humidity 48    
Precipitation  
Precipitation 0.00 in 0.09 in 1.05 in (1983)
Month to date precipitation 0.00 0.18  
Year to date precipitation 4.28 4.60  
Sea Level Pressure  
Sea Level Pressure 29.66 in    
Wind  
Wind Speed 12 mph (SE)    
Max Wind Speed 21 mph    
Max Gust Speed 26 mph    
Visibility 7 miles    
Events      
T = Trace of Precipitation, MM = Missing Value Source: NWS Daily Summary

Daily Weather History Graph

Daily Weather History Graph

Search for Another Location

Airport or City:

Trip Planner

Search our weather history database for the weather conditions in past years. The results will help you decide how hot, cold, wet, or windy it might be!

Date:

Astronomy

Apr. 02, 2012 Rise Set
Actual Time 6:50 AM CDT 7:36 PM CDT
Civil Twilight 6:22 AM CDT 8:04 PM CDT
Nautical Twilight 5:49 AM CDT 8:37 PM CDT
Astronomical Twilight 5:15 AM CDT 9:11 PM CDT
Moon 3:10 PM CDT (4/2) 4:06 AM CDT (4/2)
Length of Visible Light 13h 41m
Length of Day
12h 45m
Waxing Gibbous, 78% of the Moon is Illuminated
Apr 2
Waxing Gibbous
Apr 6
Full
Apr 13
Last Quarter
Apr 21
New
Apr 29
First Quarter

Hourly Weather History & Observations

Time (CDT) Temp. Heat Index Dew Point Humidity Pressure Visibility Wind Dir Wind Speed Gust Speed Precip Events Conditions
12:53 AM 60.1 °F - 55.0 °F 83% 29.57 in 5.0 mi East 18.4 mph - N/A   Haze
1:53 AM 57.0 °F - 52.0 °F 83% 29.59 in 5.0 mi East 18.4 mph - N/A   Haze
2:53 AM 55.0 °F - 52.0 °F 89% 29.60 in 4.0 mi East 15.0 mph - N/A   Clear
3:53 AM 54.0 °F - 52.0 °F 93% 29.61 in 4.0 mi East 12.7 mph - N/A   Clear
4:53 AM 53.1 °F - 51.1 °F 93% 29.62 in 3.0 mi East 11.5 mph - N/A   Clear
5:53 AM 53.1 °F - 51.1 °F 93% 29.64 in 3.0 mi East 10.4 mph - N/A   Clear
6:53 AM 52.0 °F - 50.0 °F 93% 29.66 in 2.5 mi East 11.5 mph - N/A   Clear
7:53 AM 53.1 °F - 51.1 °F 93% 29.69 in 2.5 mi East 11.5 mph - N/A   Clear
8:22 AM 55.4 °F - 51.8 °F 88% 29.70 in 3.0 mi ESE 12.7 mph - N/A   Clear
8:53 AM 57.0 °F - 53.1 °F 87% 29.69 in 4.0 mi ESE 15.0 mph - N/A   Clear
9:53 AM 62.1 °F - 55.0 °F 78% 29.70 in 5.0 mi ESE 13.8 mph - N/A   Haze
10:53 AM 68.0 °F - 59.0 °F 73% 29.70 in 7.0 mi ESE 9.2 mph - N/A   Clear
11:53 AM 73.0 °F - 62.1 °F 68% 29.70 in 10.0 mi ESE 12.7 mph - N/A   Clear
12:53 PM 78.1 °F - 64.0 °F 62% 29.68 in 10.0 mi SSE 12.7 mph - N/A   Clear
1:53 PM 80.1 °F 81.7 °F 64.0 °F 58% 29.68 in 10.0 mi SSE 16.1 mph 21.9 mph N/A   Clear
2:53 PM 82.0 °F 83.4 °F 64.0 °F 54% 29.67 in 10.0 mi ESE 15.0 mph - N/A   Clear
3:53 PM 84.0 °F 85.8 °F 64.9 °F 53% 29.65 in 10.0 mi SSE 12.7 mph 20.7 mph N/A   Clear
4:53 PM 84.9 °F 85.9 °F 63.0 °F 48% 29.65 in 10.0 mi South 13.8 mph - N/A   Clear
5:53 PM 84.0 °F 84.9 °F 63.0 °F 49% 29.65 in 10.0 mi South 16.1 mph - N/A   Clear
6:53 PM 81.0 °F 81.7 °F 61.0 °F 50% 29.66 in 10.0 mi South 10.4 mph - N/A   Clear
7:53 PM 73.0 °F - 59.0 °F 61% 29.68 in 8.0 mi South 8.1 mph - N/A   Clear
8:53 PM 71.1 °F - 57.9 °F 63% 29.69 in 10.0 mi South 8.1 mph - N/A   Clear
9:53 PM 70.0 °F - 57.0 °F 63% 29.71 in 10.0 mi SSE 6.9 mph - N/A   Clear
10:53 PM 68.0 °F - 55.9 °F 65% 29.71 in 10.0 mi South 6.9 mph - N/A   Clear
11:53 PM 64.0 °F - 55.0 °F 73% 29.72 in 10.0 mi ESE 9.2 mph - N/A   Clear